Stations météo

réclame
Mon MeteoGroup
Lerwick, Grande-Bretagne (3005): Température de l'air & dewpoint: 10.08.2018 20:00:00 - 16.08.2018 20:00:00 (BST)Lerwick, Grande-Bretagne (3005): Température de l'air -20cm & Température de l'air -100cm: 10.08.2018 20:00:00 - 16.08.2018 20:00:00 (BST)Lerwick, Grande-Bretagne (3005): Vitesse du vent & gusts: 10.08.2018 20:00:00 - 16.08.2018 20:00:00 (BST)Lerwick, Grande-Bretagne (3005): Direction du vent: 10.08.2018 20:00:00 - 16.08.2018 20:00:00 (BST)Lerwick, Grande-Bretagne (3005): reduced air pressure: 10.08.2018 20:00:00 - 16.08.2018 20:00:00 (BST)Lerwick, Grande-Bretagne (3005): visibility: 10.08.2018 20:00:00 - 16.08.2018 20:00:00 (BST)Lerwick, Grande-Bretagne (3005): Ensoleillement: 10.08.2018 20:00:00 - 16.08.2018 20:00:00 (BST)Lerwick, Grande-Bretagne (3005): Quantités de précipitations: 10.08.2018 20:00:00 - 16.08.2018 20:00:00 (BST)
Date & Time tt [°C] td [°C] tt -20cm [°C] tt -100cm [°C] ff [km/h] ff [knt] fx [km/h] fx [knt] dd ppp [hPa] vv [km] sd [min] rr [mm]
16.08.2018 20:00:00 12,0 10,5 - - 37 20 54 29 SW 1000,5 25 42 0,0
16.08.2018 19:00:00 12,7 10,7 - - 39 21 50 27 SW 1000,0 40 36 0,0
16.08.2018 18:00:00 14,0 11,7 - - 34 18 - - SW 1000,0 26 18 0,0
16.08.2018 17:00:00 13,7 11,5 - - 29 16 - - SW 1000,2 19 42 0,0
16.08.2018 16:00:00 15,8 10,6 - - 28 15 - - SW 1000,2 28 60 0,0
16.08.2018 15:00:00 15,4 10,6 - - 29 16 - - SW 1000,1 20 60 0,0
16.08.2018 14:00:00 15,3 10,8 - - 31 17 - - SW 1000,2 27 60 0,0
16.08.2018 13:00:00 15,7 9,9 - - 34 18 - - SW 1000,0 30 36 0,0
16.08.2018 12:00:00 15,5 10,1 - - 28 15 - - SSW 1000,0 18 30 0,0
16.08.2018 11:00:00 14,4 11,4 - - 28 15 - - S 1000,2 18 60 0,0
16.08.2018 10:00:00 14,0 10,6 13,7 11,7 24 13 - - S 1000,3 28 60 0,0
16.08.2018 09:00:00 13,2 10,6 - - 21 11 - - S 1000,5 17 60 0,0
16.08.2018 08:00:00 12,0 10,7 - - 18 10 - - SSW 1000,5 12 60 0,0
16.08.2018 07:00:00 10,2 9,5 - - 8 4 - - SSW 1000,4 11 6 0,0
16.08.2018 06:00:00 10,7 9,7 - - 18 10 - - SW 1000,3 9 0 0,0
16.08.2018 05:00:00 10,7 10,2 - - 18 10 - - SSW 1000,6 8 0 0,0
16.08.2018 04:00:00 10,8 10,2 - - 21 11 - - SW 1000,3 8 0 0,0
16.08.2018 03:00:00 11,3 10,6 - - 28 15 - - SW 1000,4 10 0 0,0
16.08.2018 02:00:00 11,6 10,6 - - 35 19 50 27 WSW 1000,0 13 0 0,0
16.08.2018 01:00:00 12,8 11,3 - - 39 21 50 27 SW 999,9 22 - 0,0
16.08.2018 00:00:00 13,1 11,1 - - 29 16 - - SW 1000,1 23 0 0,0
15.08.2018 23:00:00 12,0 11,6 - - 16 9 - - S 1000,2 20 0 0,0
15.08.2018 22:00:00 12,2 11,9 - - 13 7 - - S 1000,4 19 0 0,0
15.08.2018 21:00:00 11,9 11,7 - - 21 11 - - S 1000,5 17 0 0,0
15.08.2018 20:00:00 11,9 11,6 - - 15 8 - - S 1000,5 18 0 1,2
15.08.2018 19:00:00 11,9 11,4 - - 15 8 - - SSW 1001,3 7 0 3,2
15.08.2018 18:00:00 12,0 11,5 - - 26 14 - - WSW 1001,4 6 0 1,2
15.08.2018 17:00:00 12,6 11,5 - - 22 12 - - SW 1001,9 12 0 0,4
15.08.2018 16:00:00 14,2 12,9 - - 26 14 - - SSW 1002,4 23 0 0,0
15.08.2018 15:00:00 15,6 12,5 - - 22 12 - - SSW 1002,4 25 0 0,0
15.08.2018 14:00:00 15,5 13,3 - - 35 19 - - SW 1002,7 35 6 0,0
15.08.2018 13:00:00 14,7 13,0 - - 31 17 - - S 1003,3 35 0 0,0
15.08.2018 12:00:00 14,4 12,6 - - 31 17 46 25 S 1003,7 40 0 0,0
15.08.2018 11:00:00 14,2 12,3 - - 29 16 - - S 1003,8 35 0 0,0
15.08.2018 10:00:00 13,5 11,7 14,0 11,7 24 13 - - S 1004,1 29 0 0,0
15.08.2018 09:00:00 13,2 11,6 - - 24 13 - - SSW 1004,0 40 18 0,0
15.08.2018 08:00:00 12,6 11,7 - - 31 17 - - SW 1003,8 15 18 0,0
15.08.2018 07:00:00 11,9 11,5 - - 28 15 - - SW 1003,9 14 0 0,0
15.08.2018 06:00:00 12,0 11,8 - - 29 16 - - WSW 1003,8 19 0 0,0
15.08.2018 05:00:00 12,3 12,1 - - 29 16 - - WSW 1004,2 8 0 0,0
15.08.2018 04:00:00 12,2 12,1 - - 26 14 - - WSW 1004,3 16 0 0,0
15.08.2018 03:00:00 12,3 12,2 - - 28 15 - - WSW 1004,4 1,2 0 0,0
15.08.2018 02:00:00 12,4 12,3 - - 21 11 - - WSW 1004,2 3,4 0 0,0
15.08.2018 01:00:00 12,9 12,8 - - 22 12 - - WSW 1004,5 0,1 - 0,0
15.08.2018 00:00:00 13,3 13,2 - - 16 9 - - SSW 1004,9 7 0 0,2
14.08.2018 23:00:00 13,1 13,0 - - 18 10 - - S 1005,1 0,1 0 0,0
14.08.2018 22:00:00 13,0 12,9 - - 18 10 - - S 1005,6 0,1 0 0,0
14.08.2018 21:00:00 13,0 12,8 - - 16 9 - - S 1005,8 1,0 0 0,0
14.08.2018 20:00:00 13,1 12,9 - - 16 9 - - S 1005,8 0,1 0 0,2
14.08.2018 19:00:00 13,5 12,5 - - 13 7 - - SSW 1005,9 20 0 0,0
14.08.2018 18:00:00 13,5 12,4 - - 21 11 - - SW 1006,0 11 0 0,2
14.08.2018 17:00:00 14,8 12,6 - - 21 11 - - SW 1006,0 50 0 0,0
14.08.2018 16:00:00 14,9 13,0 - - 22 12 - - WSW 1006,3 50 0 0,0
14.08.2018 15:00:00 13,7 13,6 - - 11 6 - - SSW 1006,7 9 0 0,0
14.08.2018 14:00:00 12,9 12,7 - - 9 5 - - S 1006,9 3,2 0 0,2
14.08.2018 13:00:00 12,7 12,5 - - 13 7 - - S 1007,1 0,4 0 0,0
14.08.2018 12:00:00 12,9 12,1 - - 16 9 - - S 1007,5 5 0 0,0
14.08.2018 11:00:00 13,4 11,6 - - 18 10 - - S 1007,4 40 0 0,0
14.08.2018 10:00:00 13,9 11,3 14,0 11,7 15 8 - - S 1007,5 40 0 0,0
14.08.2018 09:00:00 13,4 10,9 - - 11 6 - - SSW 1007,7 45 0 0,0
14.08.2018 08:00:00 13,2 11,1 - - 11 6 - - S 1007,9 45 0 0,0
14.08.2018 07:00:00 13,1 11,3 - - 13 7 - - S 1008,0 50 0 0,0
14.08.2018 06:00:00 12,7 11,2 - - 8 4 - - SSE 1008,1 50 0 0,0
14.08.2018 05:00:00 12,3 11,1 - - 8 4 - - SSE 1008,4 40 0 0,0
14.08.2018 04:00:00 12,3 10,3 - - 5 3 - - SE 1008,7 45 0 0,0
14.08.2018 03:00:00 11,4 9,8 - - 4 2 - - E 1009,1 50 0 0,0
14.08.2018 02:00:00 10,6 9,2 - - 2 1 - - ESE 1009,5 45 0 0,0
14.08.2018 01:00:00 10,5 9,3 - - 0 0 - - N 1009,7 50 - 0,0
14.08.2018 00:00:00 11,3 9,6 - - 4 2 - - E 1009,5 50 0 0,0
13.08.2018 23:00:00 11,0 9,2 - - 2 1 - - NE 1009,6 50 0 0,0
13.08.2018 22:00:00 11,1 9,4 - - 2 1 - - ENE 1010,1 50 0 0,0
13.08.2018 21:00:00 11,8 9,6 - - 5 3 - - ESE 1010,1 40 24 0,0
13.08.2018 20:00:00 13,1 9,3 - - 13 7 - - E 1010,0 45 60 0,0
13.08.2018 19:00:00 14,0 9,5 - - 15 8 - - E 1009,9 40 54 0,0
13.08.2018 18:00:00 14,9 9,8 - - 15 8 - - E 1010,0 45 54 0,0
13.08.2018 17:00:00 15,0 10,0 - - 15 8 - - E 1010,4 40 30 0,0
13.08.2018 16:00:00 14,6 9,5 - - 18 10 - - E 1010,6 40 6 0,0
13.08.2018 15:00:00 14,2 9,3 - - 18 10 - - ENE 1010,8 45 6 0,0
13.08.2018 14:00:00 14,4 9,8 - - 18 10 - - ENE 1011,1 40 18 0,0
13.08.2018 13:00:00 14,7 10,1 - - 21 11 - - E 1011,0 35 24 0,0
13.08.2018 12:00:00 15,6 10,8 - - 24 13 - - E 1010,9 29 36 0,0
13.08.2018 11:00:00 13,5 9,6 - - 18 10 - - E 1011,0 35 0 0,0
13.08.2018 10:00:00 13,7 9,9 14,0 11,7 22 12 - - ENE 1010,9 40 0 0,0
13.08.2018 09:00:00 13,9 9,6 - - 18 10 - - E 1011,1 35 12 0,0
13.08.2018 08:00:00 13,0 10,0 - - 21 11 - - ENE 1011,0 45 48 0,0
13.08.2018 07:00:00 12,9 9,3 - - 21 11 - - ENE 1010,9 40 48 0,0
13.08.2018 06:00:00 12,1 9,4 - - 21 11 - - ENE 1010,9 50 0 0,0
13.08.2018 05:00:00 11,6 9,6 - - 16 9 - - ENE 1011,1 45 0 0,0
13.08.2018 04:00:00 10,5 9,0 - - 9 5 - - NE 1011,5 50 0 0,0
13.08.2018 03:00:00 10,4 8,7 - - 5 3 - - ENE 1011,7 40 0 0,0
13.08.2018 02:00:00 11,1 9,0 - - 13 7 - - ENE 1011,9 45 0 0,0
13.08.2018 01:00:00 11,4 8,9 - - 16 9 - - ENE 1012,1 45 - 0,0
13.08.2018 00:00:00 10,8 9,0 - - 9 5 - - ENE 1012,3 50 0 0,0
12.08.2018 23:00:00 10,5 8,4 - - 9 5 - - ENE 1012,5 50 0 0,0
12.08.2018 22:00:00 10,5 8,9 - - 8 4 - - ENE 1012,7 50 0 0,0
12.08.2018 21:00:00 11,8 9,1 - - 13 7 - - ENE 1012,7 50 30 0,0
12.08.2018 20:00:00 12,4 8,8 - - 15 8 - - ENE 1012,8 50 54 0,0
12.08.2018 19:00:00 13,7 9,3 - - 15 8 - - ENE 1012,8 40 42 0,0
12.08.2018 18:00:00 13,4 8,7 - - 16 9 - - ENE 1013,1 50 54 0,0
12.08.2018 17:00:00 14,6 9,3 - - 18 10 - - ENE 1013,0 40 60 0,0
12.08.2018 16:00:00 14,6 8,8 - - 21 11 - - ENE 1013,1 40 60 0,0
12.08.2018 15:00:00 14,7 9,3 - - 13 7 - - E 1013,4 50 60 0,0
12.08.2018 14:00:00 14,6 8,2 - - 15 8 - - E 1013,6 50 60 0,0
12.08.2018 13:00:00 14,4 7,5 - - 13 7 - - ENE 1013,6 50 60 0,0
12.08.2018 12:00:00 14,0 8,2 - - 15 8 - - ENE 1013,9 50 60 0,0
12.08.2018 11:00:00 13,4 8,4 - - 15 8 - - NE 1013,8 50 60 0,0
12.08.2018 10:00:00 12,8 8,4 14,0 11,7 13 7 - - NE 1013,9 40 60 0,0
12.08.2018 09:00:00 12,3 8,5 - - 11 6 - - NE 1014,0 40 60 0,0
12.08.2018 08:00:00 11,6 8,5 - - 9 5 - - NE 1014,1 50 60 0,0
12.08.2018 07:00:00 10,6 8,7 - - 5 3 - - NE 1014,2 45 60 0,0
12.08.2018 06:00:00 8,9 7,4 - - 11 6 - - NNE 1014,2 50 18 0,0
12.08.2018 05:00:00 8,1 7,3 - - 5 3 - - NNW 1014,3 35 0 0,0
12.08.2018 04:00:00 8,1 7,2 - - 5 3 - - N 1014,6 50 0 0,0
12.08.2018 03:00:00 8,2 6,9 - - 9 5 - - N 1015,1 45 0 0,0
12.08.2018 02:00:00 8,7 7,2 - - 8 4 - - N 1015,3 50 0 0,0
12.08.2018 01:00:00 8,5 7,2 - - 5 3 - - NNW 1015,6 50 - 0,0
12.08.2018 00:00:00 8,5 7,1 - - 8 4 - - NNW 1015,8 45 0 0,0
11.08.2018 23:00:00 8,6 7,2 - - 8 4 - - NNW 1016,0 45 0 0,0
11.08.2018 22:00:00 9,7 8,4 - - 8 4 - - NNW 1016,1 50 0 0,0
11.08.2018 21:00:00 11,2 8,6 - - 9 5 - - NNW 1016,2 50 36 0,0
11.08.2018 20:00:00 12,6 8,4 - - 9 5 - - NW 1016,2 50 30 0,0
11.08.2018 19:00:00 13,5 8,0 - - 11 6 - - WNW 1016,1 50 12 0,0
11.08.2018 18:00:00 13,9 7,4 - - 9 5 - - WNW 1016,1 40 42 0,0
11.08.2018 17:00:00 14,9 7,7 - - 11 6 - - NW 1016,0 40 42 0,0
11.08.2018 16:00:00 14,2 8,5 - - 16 9 - - WNW 1016,0 40 36 0,0
11.08.2018 15:00:00 14,1 8,3 - - 15 8 - - NW 1016,0 40 12 0,0
11.08.2018 14:00:00 13,9 7,7 - - 16 9 - - WNW 1015,9 20 18 0,0
11.08.2018 13:00:00 14,1 9,2 - - 21 11 - - W 1015,6 18 48 0,2
11.08.2018 12:00:00 14,1 10,3 - - 22 12 - - W 1015,7 18 60 0,0
11.08.2018 11:00:00 13,8 10,0 - - 15 8 - - W 1015,7 30 48 0,0
11.08.2018 10:00:00 11,4 8,4 14,0 11,7 8 4 - - W 1015,9 15 0 0,2
11.08.2018 09:00:00 11,8 10,1 - - 16 9 - - W 1015,6 12 24 0,6
11.08.2018 08:00:00 11,3 9,3 - - 11 6 - - W 1015,5 45 6 0,0
11.08.2018 07:00:00 10,3 9,3 - - 9 5 - - W 1015,3 40 0 0,0
11.08.2018 06:00:00 9,7 8,9 - - 9 5 - - W 1015,1 11 0 3,6
11.08.2018 05:00:00 11,1 9,3 - - 16 9 - - W 1014,9 45 0 0,0
11.08.2018 04:00:00 11,1 9,4 - - 16 9 - - W 1015,1 50 0 0,0
11.08.2018 03:00:00 11,0 8,5 - - 16 9 - - WSW 1015,3 50 0 0,0
11.08.2018 02:00:00 10,8 8,6 - - 11 6 - - W 1015,4 45 0 0,0
11.08.2018 01:00:00 10,9 8,4 - - 13 7 - - W 1015,5 50 - 0,0
11.08.2018 00:00:00 10,7 7,8 - - 15 8 - - W 1015,4 50 0 0,0
10.08.2018 23:00:00 10,6 7,8 - - 16 9 - - W 1015,3 50 0 0,0
10.08.2018 22:00:00 10,7 7,8 - - 16 9 - - W 1014,9 50 0 0,0
10.08.2018 21:00:00 11,4 8,4 - - 16 9 - - WNW 1014,5 50 18 0,0
10.08.2018 20:00:00 12,1 7,9 - - 16 9 - - WNW 1014,0 50 6 0,0

tt = Température de l'air
td = dewpoint
tt -20cm = Température de l'air -20cm
tt -100cm = Température de l'air -100cm
ff = Vitesse du vent
fx = gusts
dd = Direction du vent
ppp = reduced air pressure
vv = visibility
sd = Ensoleillement
rr = Quantités de précipitations

stations d'obs. à proximité